| time (UTC) | temp F | wind direction | speed MPH | gust MPH | rain 1hr in | rain 24hr in | rain mn in | humidity % | barometer mb |
| 20260505075451 | 54 | 342 | 2.0 | 3.0 | 0.00 | 0.00 | 0.00 | 57 | 1009.9 |
| 20260505073902 | 55 | 5 | 2.0 | 3.0 | 0.00 | 0.00 | 0.00 | 57 | 1009.2 |
| 20260505072315 | 56 | 344 | 3.0 | 5.0 | 0.00 | 0.00 | 0.00 | 57 | 1010.2 |
| 20260505070724 | 58 | 65 | 3.0 | 5.0 | 0.00 | 0.00 | 0.00 | 49 | 1010.1 |
| 20260505065137 | 59 | 355 | 3.0 | 9.0 | 0.00 | 0.00 | 0.00 | 41 | 1009.5 |
| 20260505063548 | 60 | 24 | 2.0 | 2.0 | 0.00 | 0.00 | 0.00 | 41 | 1008.0 |
| 20260505061957 | 60 | 328 | 3.0 | 5.0 | 0.00 | 0.00 | 0.00 | 42 | 1007.7 |
| 20260505060408 | 62 | 360 | 6.0 | 6.0 | 0.00 | 0.00 | 0.00 | 40 | 1007.5 |
| 20260505054820 | 63 | 355 | 10.0 | 12.0 | 0.00 | 0.00 | 0.00 | 40 | 1007.0 |
| 20260505053231 | 65 | 360 | 10.0 | 10.0 | 0.00 | 0.00 | 0.00 | 39 | 1007.0 |
| 20260505051641 | 67 | 83 | 4.0 | 9.0 | 0.00 | 0.00 | 0.00 | 38 | 1006.5 |
| 20260505041326 | 71 | 46 | 2.0 | 3.0 | 0.00 | 0.00 | 0.00 | 37 | 1005.3 |
| 20260505035737 | 71 | 340 | 3.0 | 5.0 | 0.00 | 0.00 | 0.00 | 41 | 1005.1 |
| 20260505034148 | 71 | 345 | 3.0 | 7.0 | 0.00 | 0.00 | 0.00 | 46 | 1004.9 |
| 20260505032558 | 69 | 344 | 3.0 | 4.0 | 0.00 | 0.00 | 0.00 | 59 | 1004.6 |
| 20260505031010 | 67 | 344 | 1.0 | 4.0 | 0.00 | 0.00 | 0.00 | 68 | 1004.0 |
| 20260505025420 | 67 | 360 | 0.0 | 0.0 | 0.00 | 0.00 | 0.00 | 68 | 1003.4 |
| 20260505023831 | 67 | 360 | 0.0 | 1.0 | 0.00 | 0.00 | 0.00 | 70 | 1003.1 |
| 20260505022243 | 68 | 209 | 2.0 | 2.0 | 0.00 | 0.00 | 0.00 | 69 | 1003.1 |
| 20260505020654 | 69 | 360 | 0.0 | 0.0 | 0.00 | 0.00 | 0.00 | 67 | 1002.7 |
| 20260505015104 | 71 | 360 | 0.0 | 0.0 | 0.00 | 0.00 | 0.00 | 64 | 1002.5 |
| 20260505013515 | 73 | 360 | 0.0 | 0.0 | 0.00 | 0.00 | 0.00 | 62 | 1002.5 |
| 20260505011926 | 75 | 360 | 0.0 | 1.0 | 0.00 | 0.00 | 0.00 | 55 | 1002.1 |
| 20260505004749 | 77 | 360 | 0.0 | 3.0 | 0.00 | 0.00 | 0.00 | 50 | 1001.8 |
| 20260505003159 | 78 | 360 | 0.0 | 1.0 | 0.00 | 0.00 | 0.00 | 47 | 1001.7 |
| 20260505000022 | 80 | 251 | 3.0 | 4.0 | 0.00 | 0.00 | 0.00 | 43 | 1001.7 |
| 20260504234434 | 80 | 252 | 2.0 | 4.0 | 0.00 | 0.00 | 0.00 | 42 | 1001.8 |
| 20260504232844 | 80 | 219 | 2.0 | 4.0 | 0.00 | 0.00 | 0.00 | 43 | 1001.9 |
| 20260504231255 | 81 | 166 | 6.0 | 6.0 | 0.00 | 0.00 | 0.00 | 42 | 1001.9 |
| 20260504225705 | 81 | 248 | 3.0 | 4.0 | 0.00 | 0.00 | 0.00 | 42 | 1001.9 |
| 20260504224116 | 82 | 186 | 6.0 | 7.0 | 0.00 | 0.00 | 0.00 | 40 | 1001.8 |
| 20260504222528 | 82 | 193 | 1.0 | 2.0 | 0.00 | 0.00 | 0.00 | 40 | 1001.8 |
| 20260504220942 | 83 | 177 | 2.0 | 10.0 | 0.00 | 0.00 | 0.00 | 40 | 1001.8 |
| 20260504215349 | 83 | 279 | 2.0 | 5.0 | 0.00 | 0.00 | 0.00 | 37 | 1001.9 |
| 20260504213802 | 83 | 241 | 2.0 | 3.0 | 0.00 | 0.00 | 0.00 | 37 | 1002.1 |
| 20260504210622 | 83 | 240 | 5.0 | 5.0 | 0.00 | 0.00 | 0.00 | 37 | 1002.3 |
| 20260504205033 | 85 | 192 | 3.0 | 9.0 | 0.00 | 0.00 | 0.00 | 36 | 1002.5 |
| 20260504201857 | 84 | 281 | 3.0 | 3.0 | 0.00 | 0.00 | 0.00 | 38 | 1002.8 |
| 20260504200307 | 84 | 187 | 7.0 | 7.0 | 0.00 | 0.00 | 0.00 | 38 | 1002.9 |
| 20260504194717 | 83 | 230 | 6.0 | 14.0 | 0.00 | 0.00 | 0.00 | 38 | 1003.0 |
| 20260504193128 | 83 | 218 | 8.0 | 9.0 | 0.00 | 0.00 | 0.00 | 37 | 1003.0 |
| 20260504191540 | 82 | 360 | 0.0 | 4.0 | 0.00 | 0.00 | 0.00 | 41 | 1002.8 |
| 20260504185950 | 81 | 274 | 1.0 | 5.0 | 0.00 | 0.00 | 0.00 | 40 | 1003.1 |
| 20260504182817 | 80 | 140 | 5.0 | 6.0 | 0.00 | 0.00 | 0.00 | 44 | 1003.2 |
| 20260504181223 | 80 | 211 | 1.0 | 9.0 | 0.00 | 0.00 | 0.00 | 46 | 1003.1 |
| 20260504175634 | 79 | 241 | 5.0 | 10.0 | 0.00 | 0.00 | 0.00 | 44 | 1003.3 |
| 20260504174046 | 79 | 263 | 4.0 | 7.0 | 0.00 | 0.00 | 0.00 | 44 | 1003.4 |
| 20260504172456 | 78 | 276 | 1.0 | 7.0 | 0.00 | 0.00 | 0.00 | 48 | 1003.6 |
| 20260504110524 | 51 | 360 | 0.0 | 0.0 | 0.00 | 0.00 | 0.00 | 91 | 1004.3 |
| 20260504100205 | 51 | 360 | 0.0 | 0.0 | 0.00 | 0.00 | 0.00 | 89 | 1005.5 |
| 20260504081123 | 56 | 360 | 0.0 | 0.0 | 0.00 | 0.00 | 0.00 | 81 | 1006.2 |